Вернуться в каталог

STARLINK-2029

АктивенСвязьVLEO
NORAD 48320·PAYLOAD·🇺🇸 United States

Запущен Apr 29, 2021 с Cape Canaveral Space Force Station

Loading…

Ближайшие Пролёты (ближайшие 24 часа)

TLE

СвежийSource: CelesTrak SupGP

Эпоха: Sep 15, 2026, 02:04 UTC

1 48320C 21036AW  26258.08659722  .00037033  00000+0  11904-2 0  2581
2 48320  53.1576 300.0391 0001275  98.3635 246.5863 15.31696277    13

Отслеживайте STARLINK-2029 в реальном времени с AllMySat

Download on the App Store